User: anonymous   Login
Location: Hookston
(37.9413°N, 122.0527°W)
Time: 21:41:57
(UTC+00:00)
Language:

NOSS 0 Rocket - Orbit

View from above orbital plane
View from above orbital plane
View from above satellite
View from above satellite

Ground track
Ground track

The orbit data is extracted from the following two-line orbital elements,

1 05679U 71110B   24206.35767310  .00000087  00000-0  12129-3 0  9996
2 05679  69.9980  15.1879 0015171 283.3052  76.6356 13.85528983273387
Epoch (UTC): 24 July 2024 08:35:02
Eccentricity: 0.0015171
inclination: 69.9980°
perigee height: 933 km
apogee height: 955 km
right ascension of ascending node: 15.1879°
argument of perigee: 283.3052°
revolutions per day: 13.85528983
mean anomaly at epoch: 76.6356°
orbit number at epoch: 27338

The dashed part of the orbit path shows where the satellite is in the earth's shadow,  

DLR